Overview Statistics Trail Chart Weather Telemetry Raw packets
 

This is the latest recevied weather packets stored in our database for station/object DG0LHZ-10. If no packets are shown the sender has not sent any weather packets the latest 10 day(s).

<< 34 35 36 37 38 39 >>
Time Temp. Humidity Pressure Rain* Wind** Luminosity Snow
1787555548 13.89° C 54% 1025.6 hPa - - - -
1787554648 12.78° C 55% 1025.5 hPa - - - -
1787553748 12.22° C 55% 1025.4 hPa - - - -
1787552848 12.22° C 56% 1025.4 hPa - - - -
1787551948 11.67° C 56% 1025.4 hPa - - - -
1787551048 11.11° C 55% 1025.4 hPa - - - -
1787550148 11.11° C 55% 1025.4 hPa - - - -
1787549248 11.11° C 55% 1025.2 hPa - - - -
1787548348 11.11° C 54% 1025.2 hPa - - - -
1787547448 11.11° C 54% 1025.4 hPa - - - -
1787546548 11.11° C 54% 1025.3 hPa - - - -
1787545647 11.11° C 54% 1025.1 hPa - - - -
1787544747 11.11° C 53% 1025 hPa - - - -
1787543847 11.11° C 53% 1025 hPa - - - -
1787542947 11.11° C 53% 1024.9 hPa - - - -
1787542047 11.67° C 52% 1025 hPa - - - -
1787541147 11.67° C 52% 1024.8 hPa - - - -
1787540247 11.67° C 52% 1024.7 hPa - - - -
1787539347 11.67° C 51% 1024.7 hPa - - - -
1787538447 12.22° C 51% 1024.7 hPa - - - -
1787537547 12.22° C 51% 1024.7 hPa - - - -
1787536647 12.22° C 51% 1024.6 hPa - - - -
1787535747 12.78° C 50% 1024.6 hPa - - - -
1787534847 12.78° C 50% 1024.5 hPa - - - -
1787533947 12.78° C 50% 1024.6 hPa - - - -

* Rain since midnight (hover to see other rain measurements)
** Current wind speed in m/s (hover to see current wind gust speed)